Hourly Data Report for May 24, 2012

All times are specified in Local Standard Time (LST). Add 1 hour to adjust for Daylight Saving Time where and when it is observed.

ST. JOHN'S INTL A
NEWFOUNDLAND

47°37'07.000" N
52°45'09.000" W
140.50 m
8403505
71801
YYT

Download Data

Hourly Data (May 2012)
Hourly Data Report for May 24, 2012
Temp Definition
°C
Dew Point Temp Definition
°C
Rel Hum Definition
%
Wind Dir Definition
10's deg

Wind Spd Definition
km/h
Visibility Definition
km
Stn Press Definition
kPa
Hmdx Definition


Wind Chill Definition


Weather Definition


TIME
00:30 Legend Double Dagger 5.5 5.2 98 35 31 10.0 99.60     Rain Showers
01:30 Legend Double Dagger 4.1 3.8 98 36 32 10.0 99.71     Rain Showers
02:30 Legend Double Dagger 3.4 3.1 98 0 33 10.0 99.79     Rain Showers
03:30 Legend Double Dagger 3.3 3.2 99 36 29 10.0 99.87     Rain Showers
04:30 Legend Double Dagger 3.1 2.7 97 36 38 10.0 99.91     LegendNANA
05:30 Legend Double Dagger 2.9 2.3 96 0 32 10.0 100.03     Mainly Clear
06:30 Legend Double Dagger 3.4 1.9 90 36 36 10.0 100.15     LegendNANA
07:30 Legend Double Dagger 4.2 0.5 77 0 42 10.0 100.28     LegendNANA
08:30 Legend Double Dagger 4.8 0.9 76 36 36 10.0 100.38     Mainly Clear
09:30 Legend Double Dagger 5.8 0.4 68 0 37 10.0 100.48     LegendNANA
10:30 Legend Double Dagger 6.5 -0.7 60 35 37 10.0 100.54     LegendNANA
11:30 Legend Double Dagger 7.1 -1.8 53 0 43 10.0 100.58     Mainly Clear
12:30 Legend Double Dagger 6.9 -3.1 49 0 40 10.0 100.68     LegendNANA
13:30 Legend Double Dagger 7.6 -5.1 40 36 43 10.0 100.77     LegendNANA
14:30 Legend Double Dagger 7.5 -4.3 43 0 33 10.0 100.87     Mainly Clear
15:30 Legend Double Dagger 7.3 -3.3 47 36 31 10.0 100.89     LegendNANA
16:30 Legend Double Dagger 7.0 -2.4 51 36 27 10.0 100.95     LegendNANA
17:30 Legend Double Dagger 6.1 -2.8 53 36 23 10.0 100.99     Mainly Clear
18:30 Legend Double Dagger 4.2 -2.9 60 2 11 10.0 101.01     LegendNANA
19:30 Legend Double Dagger 2.4 -0.9 79 5 8 10.0 101.02     LegendNANA
20:30 Legend Double Dagger 1.6 0.0 89 4 11 10.0 101.04     Mostly Cloudy
21:30 Legend Double Dagger 0.9 -0.4 91 0 7 10.0 101.06     LegendNANA
22:30 Legend Double Dagger 0.3 -0.9 92 27 13 10.0 101.13     LegendNANA
23:30 Legend Double Dagger 1.9 -0.2 86 26 11 10.0 101.11     Mainly Clear

Notes on Data Quality.

Legend

  • E = Estimated
  • M = Missing
  • NA = Not Available
  • ‡ = Partner data that is not subject to review by the National Climate Archives
Date modified: